�N����,����,�~����,�C��,���x,�C��,����,���ϕ���,�ő�u�ԕ���,�ő厞����,���˗�,�I�_���x,�n�����x,�ő啗���N��,DTYPE
"18/11/24","00:10",0.0,3.2,97.1,1020.1,315.7,2.6,3.7,328.8,0.00,2.8,9.9,"00:09:52",1
"18/11/24","00:20",0.0,3.7,96.1,1019.9,323.7,3.1,4.9,326.1,0.00,3.2,9.4,"00:17:52",1
"18/11/24","00:30",0.0,3.7,96.3,1019.7,312.0,2.6,4.1,324.4,0.00,3.2,9.7,"00:23:52",1
"18/11/24","00:40",0.0,3.8,96.4,1019.7,305.9,2.3,3.9,334.2,0.00,3.3,9.8,"00:39:28",1
"18/11/24","00:50",0.0,3.8,96.2,1020.1,314.0,2.5,4.1,312.6,0.00,3.3,9.5,"00:44:32",1
"18/11/24","01:00",0.0,3.6,96.0,1020.1,319.8,1.8,3.5,324.9,0.00,3.1,9.8,"00:50:32",1
"18/11/24","01:10",0.0,3.5,96.4,1020.1,317.8,1.8,2.7,313.5,0.00,3.0,9.6,"01:09:04",1
"18/11/24","01:20",0.0,4.1,96.8,1019.9,321.3,2.3,3.3,318.7,0.00,3.7,9.5,"01:13:36",1
"18/11/24","01:30",0.0,4.4,96.2,1020.4,331.3,2.2,3.5,342.2,0.00,3.9,9.5,"01:25:44",1
"18/11/24","01:40",0.0,4.4,95.8,1020.6,314.8,2.7,4.0,324.9,0.00,3.8,9.6,"01:34:40",1
"18/11/24","01:50",0.0,4.2,95.5,1020.4,318.2,2.3,5.1,322.9,0.00,3.6,9.7,"01:40:56",1
"18/11/24","02:00",0.0,3.8,95.7,1020.4,311.2,2.2,3.3,325.1,0.00,3.2,9.5,"01:52:16",1
"18/11/24","02:10",0.0,3.8,95.5,1020.4,308.5,2.2,3.4,327.3,0.00,3.2,9.6,"02:03:44",1
"18/11/24","02:20",0.0,3.5,95.9,1020.1,325.4,0.6,1.4,306.9,0.00,2.9,9.6,"02:13:44",1
"18/11/24","02:30",0.0,3.1,96.2,1020.4,291.1,1.3,1.9,305.8,0.00,2.6,9.5,"02:27:12",1
"18/11/24","02:40",0.0,2.9,96.6,1020.1,294.1,1.5,2.0,304.7,0.00,2.5,9.4,"02:33:52",1
"18/11/24","02:50",0.0,2.7,96.2,1020.4,290.0,1.6,2.1,292.0,0.00,2.2,9.3,"02:46:48",1
"18/11/24","03:00",0.0,3.1,96.8,1020.1,302.8,2.1,3.7,323.6,0.00,2.7,9.4,"02:54:40",1
"18/11/24","03:10",0.0,2.8,96.2,1020.1,310.5,1.7,2.9,317.3,0.00,2.3,9.4,"03:01:04",1
"18/11/24","03:20",0.0,2.4,96.8,1019.9,289.1,1.5,2.1,268.3,0.00,2.0,9.2,"03:10:32",1
"18/11/24","03:30",0.0,2.0,96.2,1020.1,293.8,1.0,1.4,304.4,0.00,1.5,9.2,"03:20:48",1
"18/11/24","03:40",0.0,1.9,97.1,1020.4,300.8,2.2,3.3,318.6,0.00,1.5,9.0,"03:38:48",1
"18/11/24","03:50",0.0,1.9,98.1,1020.4,300.1,1.8,2.7,309.6,0.00,1.7,9.1,"03:40:16",1
"18/11/24","04:00",0.0,2.2,96.6,1020.4,306.5,1.8,2.9,307.8,0.00,1.8,9.2,"03:58:24",1
"18/11/24","04:10",0.0,1.8,97.2,1019.9,304.5,1.8,2.6,316.9,0.00,1.4,9.0,"04:02:24",1
"18/11/24","04:20",0.0,1.9,98.3,1019.9,288.3,1.1,1.7,258.5,0.00,1.7,8.8,"04:19:28",1
"18/11/24","04:30",0.0,2.8,97.7,1019.9,268.9,2.1,2.5,275.9,0.00,2.5,9.2,"04:25:28",1
"18/11/24","04:40",0.0,2.6,97.2,1019.9,270.6,2.1,2.5,280.3,0.00,2.2,8.8,"04:35:28",1
"18/11/24","04:50",0.0,2.3,97.5,1020.1,298.9,2.0,3.1,310.3,0.00,2.0,8.9,"04:41:28",1
"18/11/24","05:00",0.0,1.8,97.7,1020.1,296.9,2.0,2.8,309.5,0.00,1.5,8.8,"04:52:00",1
"18/11/24","05:10",0.0,1.7,98.3,1020.1,298.5,1.8,3.2,320.4,0.00,1.5,8.9,"05:07:50",1
"18/11/24","05:20",0.0,1.5,97.1,1020.1,300.8,1.5,3.2,313.1,0.00,1.1,8.9,"05:14:32",1
"18/11/24","05:30",0.0,1.3,98.4,1020.1,297.4,1.7,2.4,316.4,0.00,1.1,8.8,"05:22:24",1
"18/11/24","05:40",0.0,1.3,97.7,1020.1,304.4,1.5,2.0,312.0,0.00,1.0,8.8,"05:33:12",1
"18/11/24","05:50",0.0,1.4,98.7,1020.4,316.4,2.0,2.8,316.9,0.00,1.3,8.7,"05:49:44",1
"18/11/24","06:00",0.0,1.1,96.9,1020.4,302.8,1.5,2.0,302.0,0.00,0.7,8.6,"05:50:24",1
"18/11/24","06:10",0.0,0.9,98.5,1020.1,307.3,1.7,2.5,317.4,0.00,0.7,8.7,"06:05:12",1
"18/11/24","06:20",0.0,1.2,98.5,1020.4,288.3,1.5,2.2,314.2,0.00,1.0,8.6,"06:18:00",1
"18/11/24","06:30",0.0,1.4,98.2,1020.6,298.6,1.8,2.2,314.5,0.00,1.2,8.5,"06:26:24",1
"18/11/24","06:40",0.0,1.7,98.3,1020.4,293.4,2.0,3.1,315.0,0.00,1.5,8.6,"06:31:04",1
"18/11/24","06:50",0.0,1.7,98.2,1020.4,283.9,1.5,1.9,262.2,0.00,1.5,8.5,"06:46:16",1
"18/11/24","07:00",0.0,2.0,98.4,1020.6,292.9,2.0,3.2,315.0,0.00,1.8,8.5,"06:59:52",1
"18/11/24","07:10",0.0,2.3,98.1,1020.8,295.1,2.2,3.4,311.1,0.00,2.1,8.5,"07:00:16",1
"18/11/24","07:20",0.0,2.3,97.9,1020.8,309.5,2.3,2.9,315.2,0.00,2.0,8.5,"07:10:48",1
"18/11/24","07:30",0.0,2.2,98.7,1021.3,309.7,2.2,2.8,309.2,0.00,2.1,8.5,"07:21:16",1
"18/11/24","07:40",0.0,2.8,98.6,1020.8,298.9,1.7,1.7,298.9,0.00,2.6,8.5,"07:30:28",1
"18/11/24","07:50",0.0,3.4,98.6,1021.1,342.2,1.6,1.9,333.3,0.00,3.2,8.5,"07:48:06",1
"18/11/24","08:00",0.0,4.2,98.0,1021.3,324.4,2.5,3.9,325.1,0.01,4.0,8.7,"07:55:50",1
"18/11/24","08:10",0.0,4.4,97.9,1021.5,302.2,2.5,3.3,326.5,0.01,4.1,8.8,"08:05:14",1
"18/11/24","08:20",0.0,4.6,98.1,1021.5,322.1,1.2,2.7,309.8,0.04,4.4,8.7,"08:13:36",1
"18/11/24","08:30",0.0,5.0,97.1,1021.5,281.1,0.6,1.2,252.5,0.06,4.6,9.1,"08:26:16",1
"18/11/24","08:40",0.0,5.3,97.8,1021.3,277.3,1.5,2.1,274.6,0.07,5.0,9.2,"08:37:04",1
"18/11/24","08:50",0.0,5.4,97.0,1021.8,279.6,1.6,2.2,257.9,0.07,5.0,9.2,"08:41:12",1
"18/11/24","09:00",0.0,5.6,96.5,1022.0,286.5,1.2,2.4,314.6,0.07,5.1,9.3,"08:52:32",1
"18/11/24","09:10",0.0,5.9,96.5,1022.0,302.1,1.0,1.9,314.4,0.10,5.4,9.2,"09:02:34",1
"18/11/24","09:20",0.0,6.1,94.6,1022.3,320.2,1.0,2.4,316.0,0.12,5.3,9.3,"09:10:32",1
"18/11/24","09:30",0.0,6.7,93.3,1022.3,293.0,0.6,1.0,282.1,0.13,5.7,9.7,"09:22:08",1
"18/11/24","09:40",0.0,6.8,90.5,1022.5,232.6,0.5,1.0,230.5,0.11,5.4,9.9,"09:37:52",1
"18/11/24","09:50",0.0,6.9,90.3,1022.7,239.3,0.6,1.2,248.3,0.12,5.5,9.8,"09:42:48",1
"18/11/24","10:00",0.0,6.9,88.9,1022.5,233.3,0.8,1.7,204.3,0.12,5.2,10.1,"09:52:56",1
"18/11/24","10:10",0.0,7.3,88.9,1022.3,245.8,0.8,1.6,234.8,0.13,5.6,10.1,"10:06:10",1
"18/11/24","10:20",0.0,7.3,87.3,1022.7,253.6,1.0,2.1,240.2,0.15,5.4,10.3,"10:18:28",1
"18/11/24","10:30",0.0,7.3,86.8,1022.5,219.8,0.6,1.1,235.8,0.16,5.3,10.3,"10:22:04",1
"18/11/24","10:40",0.0,7.7,85.6,1022.5,356.0,0.7,1.8,238.9,0.16,5.5,10.7,"10:30:02",1
"18/11/24","10:50",0.0,8.0,85.8,1022.7,246.3,1.1,2.2,237.7,0.15,5.8,10.7,"10:40:16",1
"18/11/24","11:00",0.0,8.0,84.8,1022.7,226.2,0.7,1.4,239.8,0.15,5.6,10.7,"10:51:06",1
"18/11/24","11:10",0.0,8.1,83.8,1022.7,276.0,1.1,1.8,323.4,0.09,5.6,10.9,"11:05:26",1
"18/11/24","11:20",0.0,8.3,83.0,1022.7,310.4,1.1,2.4,311.7,0.15,5.6,10.9,"11:19:46",1
"18/11/24","11:30",0.0,8.7,82.1,1022.3,308.1,1.1,2.7,327.5,0.17,5.9,11.3,"11:28:40",1
"18/11/24","11:40",0.0,9.1,82.4,1022.0,291.4,1.0,2.4,342.4,0.19,6.3,11.3,"11:31:44",1
"18/11/24","11:50",0.0,9.1,80.0,1022.3,331.6,1.5,2.9,331.6,0.18,5.9,11.2,"11:44:00",1
"18/11/24","12:00",0.0,9.0,80.2,1022.3,330.3,1.0,2.4,336.7,0.19,5.8,11.3,"11:55:12",1
"18/11/24","12:10",0.0,9.7,79.9,1021.8,307.7,0.7,2.0,330.1,0.20,6.4,11.6,"12:02:24",1
"18/11/24","12:20",0.0,9.5,78.5,1021.8,289.6,0.8,2.0,322.9,0.19,6.0,11.7,"12:18:40",1
"18/11/24","12:30",0.0,9.9,78.8,1022.3,269.8,1.0,1.7,267.6,0.17,6.4,12.0,"12:24:56",1
"18/11/24","12:40",0.0,9.9,77.3,1021.3,46.4,0.7,1.7,321.8,0.18,6.2,12.0,"12:31:04",1
"18/11/24","12:50",0.0,10.2,75.8,1020.8,340.8,0.7,1.7,327.9,0.20,6.2,12.1,"12:40:40",1
"18/11/24","13:00",0.0,10.4,76.1,1020.6,251.0,0.5,1.2,122.4,0.18,6.4,12.2,"12:57:20",1
"18/11/24","13:10",0.0,11.5,71.2,1020.6,235.2,0.7,1.7,167.0,0.44,6.5,12.6,"13:08:08",1
"18/11/24","13:20",0.0,12.0,68.7,1020.6,191.2,1.2,2.0,240.2,0.49,6.5,12.8,"13:10:16",1
"18/11/24","13:30",0.0,12.6,66.5,1020.4,276.5,1.1,2.4,213.1,0.44,6.6,12.8,"13:24:40",1
"18/11/24","13:40",0.0,12.8,65.1,1019.9,48.2,0.8,2.2,319.7,0.39,6.5,13.2,"13:36:56",1
"18/11/24","13:50",0.0,12.3,64.2,1019.7,332.1,1.7,3.4,351.0,0.21,5.8,13.2,"13:41:36",1
"18/11/24","14:00",0.0,13.1,63.7,1019.9,303.4,0.8,1.7,318.0,0.30,6.4,13.6,"13:52:48",1
"18/11/24","14:10",0.0,13.2,61.5,1020.1,304.9,1.6,3.2,337.8,0.32,6.0,13.6,"14:09:44",1
"18/11/24","14:20",0.0,13.2,60.2,1019.4,272.5,1.5,2.8,320.9,0.23,5.7,13.8,"14:10:40",1
"18/11/24","14:30",0.0,13.1,60.2,1019.4,312.1,1.3,2.4,316.1,0.28,5.6,13.7,"14:26:40",1
"18/11/24","14:40",0.0,13.5,61.7,1019.2,243.7,1.2,3.4,235.8,0.26,6.3,13.9,"14:37:36",1
"18/11/24","14:50",0.0,12.7,64.2,1019.0,252.3,2.0,3.7,235.0,0.20,6.2,14.0,"14:46:32",1
"18/11/24","15:00",0.0,12.8,65.3,1019.0,244.6,1.2,2.4,239.5,0.10,6.5,13.9,"14:51:04",1
"18/11/24","15:10",0.0,12.8,62.1,1018.7,253.3,1.0,2.0,243.9,0.17,5.8,14.0,"15:08:24",1
"18/11/24","15:20",0.0,12.7,61.9,1018.7,326.1,1.0,2.6,351.2,0.11,5.6,14.1,"15:19:28",1
"18/11/24","15:30",0.0,13.0,61.6,1018.7,321.1,1.2,4.0,343.0,0.13,5.8,14.0,"15:24:00",1
"18/11/24","15:40",0.0,12.9,62.2,1018.5,213.4,0.7,2.2,143.9,0.11,5.9,13.9,"15:36:48",1
"18/11/24","15:50",0.0,12.6,62.5,1018.7,236.2,1.5,2.6,238.9,0.09,5.7,13.8,"15:48:32",1
"18/11/24","16:00",0.0,12.5,63.1,1018.7,243.6,1.6,3.1,237.0,0.06,5.7,13.8,"15:58:32",1
"18/11/24","16:10",0.0,12.6,64.0,1018.7,237.2,1.2,2.6,231.9,0.04,6.0,13.7,"16:01:28",1
"18/11/24","16:20",0.0,12.4,63.9,1019.0,251.9,1.2,1.9,236.9,0.03,5.8,13.6,"16:16:40",1
"18/11/24","16:30",0.0,11.6,65.5,1018.7,271.1,1.2,1.9,278.2,0.00,5.4,13.6,"16:21:12",1
"18/11/24","16:40",0.0,10.9,68.7,1018.5,293.9,1.2,1.6,281.8,0.00,5.4,13.3,"16:39:12",1
"18/11/24","16:50",0.0,10.3,71.6,1018.2,300.2,1.7,2.2,314.0,0.00,5.4,13.1,"16:49:04",1
"18/11/24","17:00",0.0,9.6,74.1,1018.5,309.7,2.0,2.4,322.8,0.00,5.3,13.1,"16:50:40",1
"18/11/24","17:10",0.0,9.1,76.3,1018.7,296.8,1.8,3.1,326.1,0.00,5.2,12.8,"17:02:40",1
"18/11/24","17:20",0.0,8.7,79.1,1019.0,283.7,1.7,2.0,273.1,0.00,5.3,12.9,"17:12:24",1
"18/11/24","17:30",0.0,8.3,80.3,1018.2,290.0,1.5,2.5,305.1,0.00,5.2,12.6,"17:29:36",1
"18/11/24","17:40",0.0,8.1,82.1,1018.5,284.3,1.8,2.9,322.5,0.00,5.3,12.6,"17:32:16",1
"18/11/24","17:50",0.0,7.8,83.5,1018.5,282.8,1.6,1.9,290.4,0.00,5.2,12.4,"17:42:32",1
"18/11/24","18:00",0.0,7.6,84.1,1018.5,281.0,1.6,1.9,270.6,0.00,5.1,12.2,"17:52:48",1
"18/11/24","18:10",0.0,7.5,85.0,1018.2,283.1,1.7,2.1,268.9,0.00,5.2,12.2,"18:00:16",1
"18/11/24","18:20",0.0,7.3,85.7,1018.5,284.9,1.8,2.2,269.7,0.00,5.1,12.0,"18:10:08",1
"18/11/24","18:30",0.0,7.2,86.9,1018.2,280.8,1.8,2.5,307.0,0.00,5.2,11.9,"18:20:02",1
"18/11/24","18:40",0.0,7.0,87.2,1018.5,288.4,1.8,2.5,302.8,0.00,5.1,11.9,"18:30:16",1
"18/11/24","18:50",0.0,6.8,87.4,1018.7,296.7,2.0,2.9,323.2,0.00,4.9,11.6,"18:44:24",1
"18/11/24","19:00",0.0,6.7,88.0,1018.7,283.4,1.8,2.4,314.5,0.00,4.9,11.5,"18:50:24",1
"18/11/24","19:10",0.0,6.5,88.7,1019.0,289.9,1.7,2.5,321.7,0.00,4.8,11.5,"19:08:56",1
"18/11/24","19:20",0.0,6.3,89.4,1018.7,289.0,1.8,2.5,315.0,0.00,4.7,11.5,"19:12:56",1
"18/11/24","19:30",0.0,6.0,89.6,1019.0,296.1,1.3,1.8,315.6,0.00,4.5,11.4,"19:20:16",1
"18/11/24","19:40",0.0,5.7,90.3,1018.5,311.4,1.6,2.2,320.9,0.00,4.3,11.1,"19:34:16",1
"18/11/24","19:50",0.0,5.2,90.7,1018.7,320.7,2.2,3.1,323.7,0.00,3.8,11.2,"19:47:52",1
"18/11/24","20:00",0.0,4.7,91.3,1018.7,290.2,1.2,2.1,315.4,0.00,3.4,10.8,"19:59:36",1
"18/11/24","20:10",0.0,4.7,92.5,1018.5,317.7,1.7,2.4,317.8,0.00,3.6,10.8,"20:01:36",1
"18/11/24","20:20",0.0,4.4,93.1,1018.7,294.7,1.2,2.2,313.2,0.00,3.4,10.7,"20:16:56",1
"18/11/24","20:30",0.0,4.3,93.4,1018.5,301.3,1.5,2.1,312.3,0.00,3.4,10.8,"20:21:44",1
"18/11/24","20:40",0.0,4.8,94.6,1019.0,303.0,1.6,2.4,317.2,0.00,4.0,10.6,"20:33:26",1
"18/11/24","20:50",0.0,5.0,94.6,1019.0,291.7,1.6,2.2,321.9,0.00,4.2,10.5,"20:42:50",1
"18/11/24","21:00",0.0,5.1,94.8,1018.5,288.7,1.5,2.0,275.1,0.00,4.4,10.5,"20:58:56",1
"18/11/24","21:10",0.0,5.0,94.0,1018.5,307.1,1.5,2.2,308.5,0.00,4.2,10.5,"21:04:32",1
"18/11/24","21:20",0.0,4.9,94.4,1018.5,326.4,0.3,1.1,303.6,0.00,4.1,10.3,"21:10:08",1
"18/11/24","21:30",0.0,4.5,94.6,1018.2,332.8,1.8,2.9,327.2,0.00,3.7,10.4,"21:26:48",1
"18/11/24","21:40",0.0,4.5,95.3,1018.5,312.7,2.0,2.5,323.0,0.00,3.9,10.4,"21:32:56",1
"18/11/24","21:50",0.0,4.8,95.9,1018.7,287.6,1.5,1.8,306.6,0.00,4.2,10.2,"21:40:40",1
"18/11/24","22:00",0.0,5.1,95.6,1018.7,278.0,1.3,1.7,273.7,0.00,4.5,10.2,"21:55:12",1
"18/11/24","22:10",0.0,5.1,95.2,1018.7,314.0,1.8,2.6,323.4,0.00,4.4,10.2,"22:08:16",1
"18/11/24","22:20",0.0,5.0,95.1,1019.0,309.7,1.6,2.5,322.8,0.00,4.3,10.1,"22:14:24",1
"18/11/24","22:30",0.0,4.3,95.0,1019.0,291.2,1.1,2.2,318.4,0.00,3.6,10.1,"22:29:28",1
"18/11/24","22:40",0.0,4.3,96.3,1019.0,312.9,2.0,2.6,318.4,0.00,3.8,10.2,"22:31:28",1
"18/11/24","22:50",0.0,3.9,96.2,1019.2,287.9,1.3,1.9,305.5,0.00,3.4,10.1,"22:49:52",1
"18/11/24","23:00",0.0,3.7,96.0,1018.7,307.1,2.0,2.4,318.3,0.00,3.2,10.0,"22:58:32",1
"18/11/24","23:10",0.0,3.4,96.5,1019.0,293.2,1.5,2.0,313.3,0.00,2.9,9.9,"23:00:08",1
"18/11/24","23:20",0.0,3.5,96.8,1018.7,307.7,1.7,2.5,323.2,0.00,3.1,9.8,"23:15:20",1
"18/11/24","23:30",0.0,3.4,96.6,1018.7,294.1,1.7,2.8,307.8,0.00,3.0,9.7,"23:21:20",1
"18/11/24","23:40",0.0,2.9,96.8,1018.5,291.0,1.3,2.0,307.2,0.00,2.5,9.6,"23:36:00",1
"18/11/24","23:50",0.0,3.3,99.0,1018.7,294.3,1.7,2.6,316.1,0.00,3.2,9.7,"23:46:32",1
"18/11/24","24:00",0.0,3.5,96.1,1019.0,316.9,2.1,2.7,320.4,0.00,3.0,9.8,"23:59:44",1
